Back to catalog

STARLINK-6323

AliveCommunicationsVLEO
NORAD 56524·PAYLOAD·🇺🇸 United States

Launched May 14, 2023 from Cape Canaveral Space Force Station

Loading…

Next Passes (next 24 hours)

TLE

FreshSource: CelesTrak SupGP

Epoch: Sep 14, 2026, 15:02 UTC

1 56524C 23065X   26257.62687500 -.00064300  00000+0 -23291-2 0  2574
2 56524  43.0024 225.7932 0001766 276.3723 358.9209 15.27607858    13

Track STARLINK-6323 in real time with AllMySat

Download on the App Store